Weather History for Sisseton, SD

Change the Weather History Date:

Sunday, September 22, 2013

  Actual Average Record
Temperature  
Mean Temperature 65 °F 57 °F  
Max Temperature 87 °F 70 °F 101 °F (1936)
Min Temperature 43 °F 44 °F 23 °F (1974)
Degree Days  
Heating Degree Days 0 9  
Month to date heating degree days 83 120  
Since 1 July heating degree days 132 163  
Cooling Degree Days 0 1  
Month to date cooling degree days 76 41  
Year to date cooling degree days 611 520  
Growing Degree Days 15 (Base 50)    
Moisture  
Dew Point 49 °F    
Average Humidity 66    
Maximum Humidity 100    
Minimum Humidity 31    
Precipitation  
Precipitation 0.00 in 0.10 in 1.72 in (1968)
Month to date precipitation 0.95 1.83  
Year to date precipitation 19.62 18.57  
Sea Level Pressure  
Sea Level Pressure 29.70 in    
Wind  
Wind Speed 11 mph (South)    
Max Wind Speed 23 mph    
Max Gust Speed 33 mph    
T = Trace of Precipitation, MM = Missing Value Source: NWS Daily Summary

Daily Weather History Graph

Daily Weather History Graph

Search for Another Location

Airport:

Trip Planner

Search our weather history database for the weather conditions in past years. The results will help you decide how hot, cold, wet, or windy it might be!

Date:

Astronomy

Sep. 22, 2013 Rise Set
Actual Time 7:15 AM CDT 7:24 PM CDT
Civil Twilight 6:45 AM CDT 7:54 PM CDT
Nautical Twilight 6:10 AM CDT 8:29 PM CDT
Astronomical Twilight 5:34 AM CDT 9:05 PM CDT
Moon 9:03 PM CDT (9/22) 10:48 AM CDT (9/22)
Length of Visible Light 13h 08m
Length of Day
12h 09m
Waning Gibbous, 88% of the Moon is Illuminated
Sep 22
Waning Gibbous
Sep 26
Last Quarter
Oct 4
New
Oct 11
First Quarter
Oct 18
Full

Hourly Weather History & Observations

Time (CDT) Temp. Windchill Dew Point Humidity Pressure Visibility Wind Dir Wind Speed Gust Speed Precip Events Conditions
12:56 AM 46.0 °F 43.1 °F 44.1 °F 93% 29.85 in - South 5.8 mph - N/A   Unknown
1:56 AM 46.9 °F - 44.1 °F 90% 29.84 in - South 3.5 mph - N/A   Unknown
2:56 AM 48.0 °F - 45.0 °F 89% 29.82 in - SSE 5.8 mph - N/A   Unknown
3:56 AM 48.0 °F - 45.0 °F 89% 29.80 in - South 3.5 mph - N/A   Unknown
4:56 AM 45.0 °F 41.8 °F 44.1 °F 97% 29.78 in - South 5.8 mph - N/A   Unknown
5:56 AM 44.1 °F 41.5 °F 43.0 °F 96% 29.78 in - South 4.6 mph - N/A   Unknown
6:56 AM 43.0 °F 38.8 °F 43.0 °F 100% 29.76 in - South 6.9 mph - N/A   Unknown
7:56 AM 45.0 °F 41.2 °F 44.1 °F 97% 29.78 in - SSW 6.9 mph - N/A   Unknown
8:56 AM 50.0 °F - 46.9 °F 89% 29.76 in - South 8.1 mph - N/A   Unknown
9:56 AM 55.0 °F - 48.9 °F 80% 29.75 in - South 13.8 mph 19.6 mph N/A   Unknown
10:56 AM 61.0 °F - 50.0 °F 67% 29.73 in - South 11.5 mph 23.0 mph N/A   Unknown
11:56 AM 68.0 °F - 52.0 °F 56% 29.69 in - South 15.0 mph 23.0 mph N/A   Unknown
12:56 PM 73.0 °F - 54.0 °F 51% 29.66 in - SSE 17.3 mph 26.5 mph N/A   Unknown
1:56 PM 79.0 °F - 55.0 °F 44% 29.62 in - SSE 17.3 mph 26.5 mph N/A   Unknown
2:56 PM 86.0 °F - 55.0 °F 35% 29.59 in - South 18.4 mph 28.8 mph N/A   Unknown
3:56 PM 87.1 °F - 54.0 °F 32% 29.57 in - South 19.6 mph 29.9 mph N/A   Unknown
4:56 PM 86.0 °F - 53.1 °F 32% 29.58 in - South 16.1 mph 26.5 mph N/A   Unknown
5:56 PM 82.9 °F - 52.0 °F 34% 29.58 in - South 11.5 mph 26.5 mph N/A   Unknown
6:56 PM 79.0 °F - 51.1 °F 38% 29.60 in - South 13.8 mph 21.9 mph N/A   Unknown
7:56 PM 73.9 °F - 51.1 °F 45% 29.62 in - South 12.7 mph 20.7 mph N/A   Unknown
8:56 PM 71.1 °F - 51.1 °F 49% 29.62 in - South 12.7 mph - N/A   Unknown
9:56 PM 68.0 °F - 52.0 °F 56% 29.63 in - South 9.2 mph 18.4 mph N/A   Unknown
10:56 PM 66.0 °F - 52.0 °F 60% 29.63 in - South 12.7 mph 19.6 mph N/A   Unknown
11:56 PM 64.0 °F - 52.0 °F 65% 29.65 in - South 10.4 mph 17.3 mph N/A   Unknown